HST 1 20580U 90037B 25177.66345114 .00004439 00000-0 16260-3 0 9994 2 20580 28.4690 340.6799 0002056 189.0850 170.9707 15.25404707734132 ISS (ZARYA) 1 25544U 98067A 25178.19083724 .00010790 00000-0 19492-3 0 9992 2 25544 51.6352 257.4981 0002229 299.2930 60.7836 15.50270582516714 CXO 1 25867U 99040B 25180.01489709 .00000406 00000-0 00000-0 0 9994 2 25867 49.8035 129.0801 8406114 309.7498 0.1403 0.37805167 15982